OE7SBH-WX Weather Reports


Display with metric or nautical units.
time (UTC)temp
F
wind
direction
speed
MPH
gust
MPH
rain 1hr
in
rain 24hr
in
rain mn
in
humidity
%
barometer
mb
20260508222026 52 104 0.0 1.0 0.00 0.00 0.00 81 1022.8
20260508221027 53 104 0.0 1.0 0.00 0.00 0.00 78 1022.6
20260508220026 53 103 1.0 2.0 0.00 0.00 0.00 79 1022.5
20260508215049 53 0.0 0.0 0.00 0.00 0.00 78 1022.5
20260508212032 54 0.0 0.0 0.00 0.00 0.00 75 1022.5
20260508211030 56 45 1.0 1.0 0.00 0.00 0.00 72 1022.4
20260508210019 56 10 1.0 1.0 0.00 0.00 0.00 71 1022.3
20260508205048 55 10 0.0 1.0 0.00 0.00 0.00 74 1022.0
20260508204055 55 10 0.0 1.0 0.00 0.00 0.00 74 1022.0
20260508203018 56 10 0.0 1.0 0.00 0.00 0.00 71 1021.8
20260508202019 56 9 0.0 1.0 0.00 0.00 0.00 72 1021.7
20260508201053 58 320 0.0 1.0 0.00 0.00 0.00 68 1021.6
20260508200043 59 319 0.0 1.0 0.00 0.00 0.00 66 1021.5
20260508195031 59 336 1.0 2.0 0.00 0.00 0.00 64 1021.4
20260508194026 60 0.0 0.0 0.00 0.00 0.00 64 1021.3
20260508193029 60 339 1.0 2.0 0.00 0.00 0.00 63 1021.1
20260508192023 60 2 1.0 4.0 0.00 0.00 0.00 62 1020.9
20260508191027 62 333 1.0 2.0 0.00 0.00 0.00 61 1020.6
20260508190032 62 349 1.0 2.0 0.00 0.00 0.00 58 1020.5
20260508185033 63 346 2.0 4.0 0.00 0.00 0.00 57 1020.3
20260508184019 63 335 4.0 7.0 0.00 0.00 0.00 57 1020.1
20260508183051 64 327 4.0 7.0 0.00 0.00 0.00 56 1020.2
20260508182026 65 327 5.0 9.0 0.00 0.00 0.00 56 1020.0
20260508181029 65 317 4.0 8.0 0.00 0.00 0.00 55 1019.8
20260508180123 65 323 6.0 11.0 0.00 0.00 0.00 55 1019.6
20260508175047 65 317 6.0 10.0 0.00 0.00 0.00 55 1019.6
20260508174052 66 325 8.0 14.0 0.00 0.00 0.00 54 1019.6
20260508173034 66 327 6.0 11.0 0.00 0.00 0.00 54 1019.5
20260508172023 66 330 7.0 11.0 0.00 0.00 0.00 54 1019.3
20260508171034 66 329 8.0 15.0 0.00 0.00 0.00 54 1019.3
20260508170023 66 328 8.0 13.0 0.00 0.00 0.00 54 1019.2
20260508165030 67 328 8.0 14.0 0.00 0.00 0.00 54 1019.1
20260508164021 67 325 9.0 18.0 0.00 0.00 0.00 53 1019.0
20260508163033 67 330 9.0 15.0 0.00 0.00 0.00 52 1019.0
20260508162016 67 321 8.0 15.0 0.00 0.00 0.00 52 1018.8
20260508161017 68 325 9.0 17.0 0.00 0.00 0.00 52 1018.8
20260508160020 68 326 9.0 17.0 0.00 0.00 0.00 51 1018.8
20260508155048 68 327 10.0 17.0 0.00 0.00 0.00 51 1018.8
20260508154032 68 330 11.0 16.0 0.00 0.00 0.00 51 1018.8
20260508153034 68 323 9.0 16.0 0.00 0.00 0.00 49 1018.7
20260508152019 69 328 10.0 15.0 0.00 0.00 0.00 48 1018.8
20260508151028 69 328 7.0 11.0 0.00 0.00 0.00 47 1018.7
20260508150015 69 331 8.0 16.0 0.00 0.00 0.00 47 1018.9
20260508145015 69 323 8.0 14.0 0.00 0.00 0.00 46 1018.9
20260508144043 69 324 8.0 14.0 0.00 0.00 0.00 46 1018.9
20260508143030 69 326 8.0 14.0 0.00 0.00 0.00 46 1019.0
20260508142018 69 333 8.0 14.0 0.00 0.00 0.00 46 1019.0
20260508141029 69 323 7.0 11.0 0.00 0.00 0.00 46 1018.9
20260508140020 69 327 9.0 14.0 0.00 0.00 0.00 46 1019.0
20260508135028 68 327 9.0 15.0 0.00 0.00 0.00 47 1019.1
20260508134055 69 323 10.0 18.0 0.00 0.00 0.00 46 1019.1
20260508133017 69 329 8.0 16.0 0.00 0.00 0.00 47 1019.2
20260508132021 68 327 8.0 14.0 0.00 0.00 0.00 48 1019.3
20260508131027 68 330 8.0 15.0 0.00 0.00 0.00 49 1019.4
20260508130032 69 331 9.0 17.0 0.00 0.00 0.00 48 1019.5
20260508125034 69 332 4.0 10.0 0.00 0.00 0.00 44 1019.5
20260508124019 69 339 6.0 11.0 0.00 0.00 0.00 41 1019.5
20260508123028 70 315 1.0 2.0 0.00 0.00 0.00 44 1019.6
20260508122027 70 109 0.0 3.0 0.00 0.00 0.00 46 1019.7
20260508121028 69 133 2.0 4.0 0.00 0.00 0.00 49 1019.6
20260508120023 69 40 2.0 7.0 0.00 0.00 0.00 48 1019.6
20260508115027 70 261 1.0 3.0 0.00 0.00 0.00 44 1019.7
20260508114032 69 269 1.0 4.0 0.00 0.00 0.00 44 1019.6
20260508113034 71 320 2.0 8.0 0.00 0.00 0.00 46 1019.8
20260508112023 68 133 2.0 3.0 0.00 0.00 0.00 51 1019.9
20260508111031 66 55 2.0 6.0 0.00 0.00 0.00 53 1020.1
20260508110046 65 26 2.0 3.0 0.00 0.00 0.00 54 1020.3
20260508105028 66 0 2.0 7.0 0.00 0.00 0.00 53 1020.4
20260508104143 66 27 1.0 4.0 0.00 0.00 0.00 55 1020.5
20260508103027 64 341 2.0 7.0 0.00 0.00 0.00 56 1020.6
20260508102032 64 336 3.0 6.0 0.00 0.00 0.00 58 1020.6
20260508101034 64 336 4.0 8.0 0.00 0.00 0.00 60 1020.7
20260508100019 63 346 3.0 8.0 0.00 0.00 0.00 62 1020.8
20260508095028 62 322 3.0 7.0 0.00 0.00 0.00 62 1020.8
20260508094016 63 3 3.0 7.0 0.00 0.00 0.00 60 1021.0
20260508093018 62 4 3.0 7.0 0.00 0.00 0.00 61 1021.1
20260508092020 62 328 2.0 4.0 0.00 0.00 0.00 61 1021.1
20260508091029 60 333 1.0 3.0 0.00 0.00 0.00 63 1021.4
20260508090023 59 89 1.0 3.0 0.00 0.00 0.00 67 1021.4
20260508085048 59 330 2.0 4.0 0.00 0.00 0.00 68 1021.6
20260508084023 59 294 1.0 3.0 0.00 0.00 0.00 68 1021.7
20260508083031 57 328 2.0 7.0 0.00 0.00 0.00 70 1021.9
20260508082032 57 89 1.0 3.0 0.00 0.00 0.00 73 1022.1
20260508081018 55 47 2.0 4.0 0.00 0.00 0.00 77 1022.1
20260508080020 54 352 2.0 4.0 0.00 0.00 0.00 78 1022.2
20260508075029 55 109 2.0 4.0 0.00 0.00 0.00 77 1022.3
20260508074023 53 331 1.0 3.0 0.00 0.00 0.00 79 1022.3
20260508073028 53 20 2.0 6.0 0.00 0.00 0.00 81 1022.5
20260508072023 52 52 1.0 3.0 0.00 0.00 0.00 83 1022.6
20260508071031 51 70 1.0 3.0 0.00 0.00 0.00 84 1022.6
20260508070032 51 63 1.0 3.0 0.00 0.00 0.00 85 1022.6
20260508065018 50 340 1.0 2.0 0.00 0.00 0.00 87 1022.6
20260508064021 49 327 3.0 6.0 0.00 0.00 0.00 89 1022.6
20260508063029 49 324 3.0 3.0 0.00 0.00 0.00 90 1022.6
20260508062024 49 338 0.0 2.0 0.00 0.00 0.00 90 1022.6
20260508061028 48 19 1.0 2.0 0.00 0.00 0.00 91 1022.6
20260508060022 48 16 1.0 2.0 0.00 0.00 0.00 91 1022.5
20260508055031 48 359 1.0 3.0 0.00 0.00 0.00 92 1022.4
20260508054028 48 338 2.0 2.0 0.00 0.00 0.00 92 1022.2
20260508053018 48 12 0.0 2.0 0.00 0.00 0.00 92 1022.2
20260508052020 48 17 0.0 1.0 0.00 0.00 0.00 92 1022.3
20260508051029 48 150 1.0 2.0 0.00 0.00 0.00 93 1022.3
20260508050021 48 27 0.0 1.0 0.00 0.00 0.00 93 1022.3
20260508045029 48 336 0.0 1.0 0.00 0.00 0.00 93 1022.1
20260508044024 47 337 1.0 2.0 0.00 0.00 0.00 93 1022.2
20260508043029 48 164 1.0 2.0 0.00 0.00 0.00 94 1022.1
20260508042022 48 300 0.0 1.0 0.00 0.00 0.00 94 1022.0
20260508041051 48 0.0 0.0 0.00 0.00 0.00 94 1022.1
20260508040032 47 0.0 0.0 0.00 0.00 0.00 94 1022.0
20260508035015 47 330 0.0 1.0 0.00 0.00 0.00 96 1022.1
20260508034032 47 337 0.0 2.0 0.00 0.00 0.00 97 1021.9
20260508033029 47 10 1.0 2.0 0.00 0.00 0.00 97 1021.8
20260508032022 47 359 1.0 2.0 0.00 0.00 0.00 97 1021.9
20260508031032 47 353 1.0 2.0 0.00 0.00 0.00 97 1021.9
20260508030031 47 26 1.0 2.0 0.00 0.00 0.00 97 1021.8
20260508025019 48 353 0.0 2.0 0.00 0.00 0.00 97 1021.8
20260508024041 47 336 2.0 3.0 0.00 0.00 0.00 97 1021.8
20260508023015 47 349 0.0 1.0 0.00 0.00 0.00 97 1021.7
20260508022023 47 6 0.0 1.0 0.00 0.00 0.00 97 1021.7
20260508021031 47 337 0.0 1.0 0.00 0.00 0.00 96 1021.8
20260508020031 48 335 0.0 1.0 0.00 0.00 0.00 96 1021.7
20260508015015 47 0.0 0.0 0.00 0.00 0.00 97 1021.8
20260508014020 47 340 1.0 2.0 0.00 0.00 0.00 97 1021.9
20260508013049 48 0.0 0.0 0.00 0.00 0.00 97 1021.9
20260508012043 48 0.0 0.0 0.00 0.00 0.00 97 1022.0
20260508011051 48 0.0 0.0 0.00 0.00 0.00 96 1022.1
20260508010028 48 0.0 0.0 0.00 0.00 0.00 96 1022.0
20260508005028 48 13 0.0 1.0 0.00 0.00 0.00 95 1021.9
20260508004104 48 0.0 0.0 0.00 0.00 0.00 95 1022.1
20260508003048 48 0.0 0.0 0.00 0.00 0.00 95 1022.1
20260508002028 48 0.0 0.0 0.00 0.00 0.00 93 1022.1
20260508001038 48 328 0.0 1.0 0.00 0.00 0.00 92 1022.1
20260508000020 48 326 2.0 2.0 0.00 0.00 0.00 91 1022.1
20260507235015 48 328 1.0 2.0 0.00 0.00 0.00 91 1022.2
20260507234022 48 320 0.0 1.0 0.00 0.00 0.00 92 1022.4
20260507233031 49 300 0.0 1.0 0.00 0.00 0.00 93 1022.4
20260507232028 49 0.0 0.0 0.00 0.00 0.00 93 1022.4
20260507231039 49 336 1.0 2.0 0.00 0.00 0.00 92 1022.4
20260507230020 50 0.0 0.0 0.00 0.00 0.00 92 1022.4
20260507225109 50 0.0 0.0 0.00 0.00 0.00 91 1022.4
20260507224044 50 327 1.0 1.0 0.00 0.00 0.00 92 1022.3
20260507223028 50 331 1.0 2.0 0.00 0.00 0.00 91 1022.2